SCP
1 1 1 1 0 0 0 0 0 0 0 0 0 0 0 0 0 0 0 0 0 0 0 0 0 0 0 0 0 0 0 0 0 0 0 0 0 0 0 0 0 0 0
1 1 1 1 1 0 0 0 0 0 0 0 0 0 0 0 0 0 0 0 0 0 0 0 0 0 0 0 0 0 0 0 0 0 0 0 0 0 0 0 0 0 0
1 1 1 1 1 0 0 0 0 0 0 0 0 0 0 0 0 0 0 0 0 0 0 0 0 0 0 0 0 0 0 0 0 0 0 0 0 0 0 0 0 0 0
1 1 1 1 1 0 0 0 0 0 0 0 0 0 0 0 0 0 0 0 0 0 0 0 0 0 0 0 0 0 0 0 0 0 0 0 0 0 0 0 0 0 0
1 1 1 1 1 0 0 0 0 0 0 0 0 0 0 0 0 0 0 0 0 0 0 0 0 0 0 0 0 0 0 0 0 0 0 0 0 0 0 0 0 0 0
1 1 1 1 1 0 0 0 0 0 0 0 0 0 0 0 0 0 0 0 0 0 0 0 0 0 0 0 0 0 0 0 0 0 0 0 0 0 0 0 0 0 0
1 1 1 1 1 0 0 0 0 0 0 0 0 0 0 0 0 0 0 0 0 0 0 0 0 0 0 0 0 0 0 0 0 0 0 0 0 0 0 1 0 0 0
1 1 1 1 1 1 0 0 0 0 0 0 0 0 0 0 0 0 0 0 0 0 0 0 0 0 0 0 0 0 0 0 0 0 0 0 0 0 1 1 1 0 0
1 1 1 1 1 0 0 0 0 0 0 0 0 0 0 0 0 0 0 0 0 0 0 0 0 0 0 0 0 0 0 0 0 0 0 0 0 0 1 1 0 0 0
0 1 1 0 0 0 0 0 0 0 0 0 0 0 0 0 0 0 0 0 0 0 0 0 0 0 0 0 0 0 0 0 0 0 0 0 0 1 1 0 0 0 0
0 0 0 0 0 0 0 0 0 0 0 0 0 0 0 0 0 0 0 0 0 0 0 0 0 0 0 0 0 0 0 0 0 0 0 0 1 1 1 0 0 0 0
1 1 0 0 0 0 0 0 0 0 0 0 0 0 0 0 0 0 0 0 0 0 0 0 0 0 0 0 0 0 0 0 0 0 0 0 1 1 0 0 0 0 0
1 1 0 0 0 0 0 0 0 0 0 0 0 0 0 0 0 0 0 0 0 0 0 0 0 0 0 0 0 0 0 0 0 0 0 1 1 0 0 0 0 0 0
1 1 1 1 0 1 0 0 0 0 0 0 0 0 0 0 0 0 0 0 0 0 0 0 0 0 0 0 0 0 0 0 0 0 0 1 1 0 0 0 0 0 0
1 1 1 1 1 1 1 1 0 0 0 0 0 0 0 0 0 0 0 0 0 0 0 0 0 0 0 0 0 0 0 0 0 0 0 0 1 0 0 0 0 0 0
1 1 1 1 1 1 1 1 0 0 0 0 0 0 0 0 0 0 0 0 0 0 0 0 0 0 0 0 0 0 0 0 0 0 0 0 0 0 0 0 0 0 0
1 1 2 1 1 1 1 1 1 0 0 1 1 1 0 0 0 1 0 0 0 0 0 0 0 0 0 0 0 0 0 0 0 0 0 0 0 0 0 0 0 0 0
2 2 2 2 1 1 1 1 1 1 1 1 1 1 1 0 1 1 0 0 0 0 0 0 0 0 0 0 0 0 0 0 0 0 0 0 0 0 0 0 0 0 0
2 2 2 2 1 1 1 1 1 1 1 1 1 1 1 1 1 0 0 0 0 0 0 0 0 0 0 0 0 0 0 0 0 0 0 0 0 0 0 0 0 0 0
2 2 2 2 2 1 1 1 1 1 1 1 1 1 1 1 1 0 0 0 0 0 0 0 0 0 0 0 0 0 0 0 0 0 0 0 0 0 0 0 0 0 0
2 2 2 2 2 1 1 1 1 1 1 1 1 1 1 1 0 0 0 0 0 0 0 0 0 0 0 0 0 0 0 0 0 0 0 0 0 0 0 0 0 0 0
2 2 2 2 2 2 1 1 1 1 1 1 1 1 1 1 0 0 0 0 0 0 0 0 0 0 0 0 0 0 0 0 0 0 0 0 0 0 0 0 0 0 0
2 2 2 2 2 2 1 1 1 1 1 1 1 1 1 1 0 0 0 0 0 0 0 0 0 0 0 0 0 0 0 0 0 0 0 0 0 0 0 0 0 0 0
2 2 2 2 2 2 1 1 1 1 1 1 1 1 1 1 0 0 0 0 0 0 0 0 0 0 0 0 0 0 0 0 0 0 0 0 0 0 0 0 0 0 0
2 2 2 2 2 2 1 1 1 1 1 1 1 1 1 1 0 0 0 0 0 0 0 0 0 0 0 0 0 0 0 0 0 0 0 0 0 0 0 0 0 0 0
2 2 2 2 2 2 1 1 1 1 1 1 1 1 1 1 0 0 0 0 0 0 0 0 0 0 0 0 0 0 0 0 0 0 0 0 0 0 0 0 0 0 0
Wind_Speed
15 14 14 12 11 10 10 10 10 9 9 9 9 9 9 10 10 10 10 9 9 8 8 7 7 8 8 7 8 8 8 8 8 7 7 7 7 7 7 7 7 8 11
17 15 14 12 11 10 10 10 9 9 9 9 9 9 9 9 9 9 9 8 8 8 7 7 7 7 7 7 7 7 7 7 6 6 6 6 6 6 7 7 6 7 11
17 14 13 12 11 10 10 9 9 9 9 9 8 8 8 8 8 8 8 8 7 7 7 6 6 6 7 6 7 6 6 5 4 5 5 4 6 8 9 9 10 10 10
16 14 13 13 12 11 10 9 9 9 9 8 8 8 8 7 7 7 7 6 6 6 6 6 6 6 6 6 5 5 5 4 3 3 2 3 4 9 10 10 10 10 10
15 15 14 13 12 11 10 9 9 9 8 8 8 8 7 7 7 6 6 6 6 6 6 6 6 6 5 5 4 4 4 3 2 2 1 3 4 9 11 10 9 9 9
15 16 14 14 12 11 10 10 9 9 8 8 7 7 6 6 6 6 6 6 6 5 5 5 5 5 5 4 4 4 3 2 2 2 2 4 4 8 10 9 9 9 8
14 14 14 14 13 12 11 10 9 8 8 7 7 6 6 5 5 5 5 5 5 5 5 5 4 4 4 4 4 3 2 2 2 1 1 4 6 8 9 9 8 8 8
13 14 13 14 13 12 11 10 9 8 7 7 6 6 5 5 4 5 5 5 5 5 4 4 3 4 4 4 4 3 3 3 2 2 2 4 7 9 10 9 8 7 8
12 12 11 12 11 12 11 10 9 8 8 7 6 6 5 5 5 5 5 5 5 4 4 4 3 4 4 4 4 4 3 4 3 1 2 4 8 9 10 9 8 7 7
9 10 10 11 10 10 10 11 10 9 8 8 7 7 6 5 5 6 5 5 5 5 5 5 4 4 4 4 5 4 4 4 2 2 2 5 10 9 9 9 8 6 6
7 8 9 9 8 8 9 10 10 10 8 8 7 7 6 4 5 5 5 6 6 5 5 5 5 5 5 6 7 6 5 2 2 1 3 8 10 9 9 8 8 7 6
8 8 8 8 7 6 6 7 5 6 6 5 4 4 4 2 2 4 7 7 6 6 6 7 7 7 7 4 6 7 3 4 3 2 4 10 10 9 8 7 7 7 7
8 7 7 6 5 5 4 4 3 3 4 3 3 2 1 1 2 3 3 4 4 5 5 5 6 5 4 2 2 3 3 1 1 2 5 9 9 10 9 7 7 7 7
7 7 7 5 4 4 4 3 2 2 3 2 3 1 1 1 1 1 1 1 2 1 2 2 2 2 2 2 2 2 2 1 1 2 5 10 9 9 9 8 8 7 6
7 6 7 6 5 5 4 1 2 2 2 3 3 2 1 1 1 1 1 0 0 0 1 1 1 1 1 1 2 2 1 0 1 2 3 9 9 9 9 9 8 8 7
7 6 6 7 7 5 3 2 3 2 2 2 2 2 1 1 1 1 1 0 0 0 0 1 1 0 1 1 0 0 1 1 1 2 3 6 8 9 9 9 8 8 8
7 7 6 6 6 5 4 3 2 2 2 2 3 3 1 1 1 1 1 1 0 1 1 1 1 0 1 1 1 2 1 2 1 1 2 3 5 7 8 8 8 8 8
7 7 6 6 5 4 3 2 2 1 2 2 2 3 2 1 1 1 1 1 0 1 0 0 0 0 0 0 1 1 1 1 2 2 2 2 3 4 6 8 8 8 9
7 7 6 6 5 4 3 3 2 1 1 1 2 2 2 1 1 1 1 1 1 1 0 1 1 0 1 1 1 2 1 2 2 3 2 2 3 4 4 7 9 9 9
7 7 6 5 5 4 3 2 1 1 1 1 2 2 3 2 2 1 1 1 1 1 0 0 0 1 1 2 3 1 1 2 2 2 3 3 3 4 4 5 5 6 9
8 7 7 6 5 4 3 3 2 2 2 1 2 2 3 2 2 1 1 1 2 1 1 2 1 1 2 2 1 1 1 3 3 2 2 2 2 3 3 4 4 3 5
9 8 7 6 6 4 4 3 2 2 2 2 1 2 2 3 3 3 2 2 1 1 2 2 2 1 2 2 1 1 1 2 1 3 2 3 3 2 3 5 4 4 4
10 9 7 6 5 4 3 3 2 2 2 2 2 2 3 3 3 2 3 2 2 2 2 2 2 2 1 2 2 1 1 1 0 2 2 2 3 2 2 2 4 4 5
10 9 8 6 5 5 4 4 4 3 3 2 2 2 3 3 3 3 3 3 2 2 2 3 2 1 2 2 1 1 1 1 1 1 1 2 2 3 3 3 3 3 4
9 9 8 7 6 5 4 3 3 2 2 1 1 2 3 3 3 3 3 3 2 2 2 2 2 2 2 2 1 1 2 2 2 2 1 1 2 2 2 3 3 3 3
9 9 8 7 6 5 4 3 3 2 2 2 2 2 2 2 2 3 3 3 3 3 2 3 2 3 2 2 1 1 1 1 2 1 2 2 2 2 3 2 2 2 3
Wind_Direction
105 113 116 114 113 112 114 112 109 105 101 99 96 95 94 93 92 93 93 97 99 102 105 108 106 102 97 99 98 101 103 109 110 107 109 113 117 119 118 125 128 115 116
112 116 117 117 117 118 119 116 113 109 106 103 100 98 98 97 97 97 97 97 98 101 104 107 109 105 100 101 108 110 111 115 125 129 129 132 134 127 125 120 107 113 123
113 120 120 119 120 121 119 119 116 113 111 108 106 104 103 103 102 101 99 97 95 97 101 104 109 110 107 103 106 112 114 118 144 155 154 146 135 126 120 118 118 121 123
116 122 121 122 123 124 123 123 121 117 116 114 113 111 110 110 109 108 106 102 97 95 97 102 104 107 106 107 113 120 123 134 161 174 157 138 134 126 121 119 121 124 125
117 118 119 122 122 126 127 124 123 121 119 118 114 111 109 110 114 112 109 107 102 98 99 101 103 106 110 114 123 135 140 159 192 207 125 105 103 125 125 125 126 126 129
117 118 124 125 125 127 128 127 127 128 125 122 118 113 110 110 112 114 113 112 108 104 103 103 104 108 111 117 124 135 147 170 231 206 144 121 116 127 128 131 132 131 131
112 116 128 128 129 128 129 130 128 130 131 128 128 125 121 119 121 124 123 121 117 114 111 111 110 115 116 125 136 147 166 196 236 252 118 119 129 136 133 134 135 135 135
113 119 130 134 134 134 135 134 131 131 134 133 133 134 133 135 139 138 134 131 128 127 125 122 124 130 132 141 150 165 192 236 216 196 162 123 133 133 139 138 141 143 142
117 124 136 140 138 139 136 136 138 139 139 138 139 143 147 153 155 153 150 146 143 143 145 149 153 156 158 162 173 191 215 235 266 239 163 130 132 132 138 142 146 148 149
117 127 140 140 139 145 145 146 146 144 146 149 152 157 162 166 166 164 162 157 152 157 164 167 171 176 181 186 195 208 226 250 242 225 146 132 135 133 133 144 153 156 154
117 131 137 129 139 146 146 147 152 151 156 162 166 173 176 189 178 172 160 157 171 179 185 187 190 196 203 203 206 214 228 233 224 153 124 135 139 136 134 143 156 163 162
133 136 129 129 141 140 131 137 152 153 150 171 150 163 186 193 163 155 148 168 191 201 204 205 209 213 220 205 203 210 220 217 221 161 136 142 143 143 143 146 159 170 171
137 128 124 127 129 122 119 134 136 137 143 158 134 167 171 176 147 141 157 175 201 214 215 200 212 219 217 205 176 191 203 225 190 133 138 144 146 149 149 153 156 167 175
129 131 121 117 116 104 99 110 134 129 139 143 145 160 150 153 141 123 133 179 190 201 216 187 208 205 210 206 194 200 188 212 199 140 149 150 150 153 157 161 163 171 175
136 133 130 134 112 103 99 127 114 120 146 143 141 154 187 143 101 90 68 21 239 181 202 222 247 187 208 214 215 210 159 218 230 153 143 158 159 160 166 172 177 182 186
138 135 133 126 121 126 127 130 140 152 151 135 128 122 107 105 110 99 146 280 356 352 347 271 231 230 202 224 255 280 186 221 195 148 155 160 165 168 173 178 181 183 187
137 130 129 133 128 135 139 160 151 158 159 129 120 124 126 107 119 145 174 176 70 266 264 282 289 174 214 215 199 232 210 198 178 161 168 165 170 176 177 180 182 184 189
141 136 143 146 139 142 147 169 165 154 132 122 126 127 140 146 159 216 174 134 235 260 232 223 270 357 294 284 248 242 218 180 172 191 200 187 169 170 178 182 184 188 192
143 142 150 143 145 151 159 168 162 128 130 133 132 131 144 150 156 209 174 169 225 228 221 236 109 331 278 271 267 227 209 197 182 200 193 201 183 171 172 183 191 195 198
144 147 151 149 144 156 162 160 171 156 148 141 135 135 146 163 177 198 195 182 232 194 155 118 250 253 261 248 260 255 222 205 203 189 191 201 188 188 181 177 188 201 205
150 153 156 161 157 166 168 170 183 180 171 166 156 148 158 177 182 222 205 192 223 178 184 196 201 231 242 239 247 271 235 214 195 180 193 182 193 199 190 176 183 192 200
161 161 162 165 166 178 173 175 188 185 183 177 165 156 178 191 192 206 195 202 187 176 202 210 209 221 229 217 216 241 234 218 220 207 183 185 206 205 203 201 194 195 198
167 165 166 169 169 179 174 180 192 182 190 186 174 175 191 197 200 217 198 204 193 193 190 211 225 221 245 246 210 214 240 222 223 203 208 202 194 196 212 208 203 200 199
169 163 159 161 166 175 178 191 192 190 202 199 189 186 195 193 200 212 209 205 215 215 193 215 198 228 237 253 230 207 212 154 227 248 241 221 200 195 209 232 218 204 197
165 161 160 161 165 170 181 185 192 207 210 190 182 184 198 200 205 208 207 200 212 225 202 203 210 227 239 255 253 221 219 216 227 220 254 263 253 225 214 220 218 204 199
161 160 158 156 161 166 179 191 195 202 200 210 209 201 206 198 205 204 209 201 211 222 209 212 214 228 235 252 265 255 241 223 225 228 240 251 252 249 233 222 212 202 204